Location: Namasale
(1.5000°N, 32.6167°E)
Time: 22:53:16
(UTC+00:00)

Transit 2A - Pass Details

Date: 25 April 2021
Orbit: 602 x 957 km, 66.7° (Epoch: 11 May)

Event Time Altitude Azimuth Distance (km) Brightness Sun altitude
Rises 01:22:27 0° 179° (S) 3,427 - -34.7°
Reaches altitude 10° 01:25:25 10° 166° (SSE) 2,427 - -34.0°
Exits shadow 01:28:27 22° 137° (SE) 1,655 7.9 -33.3°
Maximum altitude 01:29:57 26° 112° (ESE) 1,509 7.9 -32.9°
Drops below altitude 10° 01:34:07 10° 56° (ENE) 2,223 9.2 -31.9°
Sets 01:36:42 0° 43° (NE) 3,080 10.0 -31.3°
